This demonstration page uses our WeatherBlox Daily Observations layout. Learn more.

Left ArrowRight Arrow

31.84235, -102.49876

Hourly Observations for May 3, 2022

Temp ( °F °C ) Dew Point ( °F °C ) Humidity (%) Winds ( mph kmh ) Pressure ( in mb ) Visibility ( mi km ) Precip ( " mm )
12:53 am 00:53 Clear 75 23.9 17 -8.3 11 11 W 7 11 29.67 1005 10 16 0.00 0.00
1:53 am 01:53 Clear 70 21.1 17 -8.3 13 13 Calm 29.68 1005 10 16 0.00 0.00
2:53 am 02:53 Mostly Cloudy with Haze 67 19.4 35 1.7 31 31 ENE 17 28 29.72 1006 4 6 0.00 0.00
3:09 am 03:09 Hazy 66 18.9 39 3.9 37 37 ENE 20 31 29.76 1008 6 10 0.00 0.00
3:53 am 03:53 Clear 63 17.2 40 4.4 43 43 ENE 16 26 29.75 1007 10 16 0.00 0.00
4:53 am 04:53 Clear 60 15.6 41 5 50 50 NE 20 31 29.77 1008 10 16 0.00 0.00
5:53 am 05:53 Clear 55 13 N/A N/A NE 20 31 29.80 1009 10 16 0.00 0.00
6:53 am 06:53 Clear 54 12 N/A N/A ENE 22 35 29.83 1010 10 16 0.00 0.00
7:53 am 07:53 Mostly Sunny 54 12 N/A N/A ENE 21 33 29.87 1011 10 16 0.00 0.00
8:08 am 08:08 Mostly Cloudy 54 12 N/A N/A ENE 22 35 29.96 1014 10 16 0.00 0.00
8:53 am 08:53 Cloudy 54 12 N/A N/A ENE 18 30 29.90 1013 10 16 0.00 0.00
9:53 am 09:53 Cloudy 55 13 N/A N/A NE 16 26 29.93 1014 10 16 0.00 0.00
10:53 am 10:53 Cloudy 57 14 N/A N/A NE 14 22 29.94 1014 10 16 0.00 0.00
11:53 am 11:53 Cloudy 61 16.1 41 5 48 48 E 9 15 29.94 1014 10 16 0.00 0.00
12:53 pm 12:53 Mostly Cloudy 65 18.3 42 5.6 43 43 E 7 11 29.92 1013 10 16 0.00 0.00
1:01 pm 13:01 Partly Cloudy 64 17.8 43 6.1 46 46 E 8 13 29.93 1014 10 16 0.00 0.00
1:53 pm 13:53 Sunny 70 21.1 45 7.2 41 41 VRB 6 9 29.89 1012 10 16 0.00 0.00
2:53 pm 14:53 Sunny 74 23.3 45 7.2 36 36 ESE 8 13 29.86 1011 10 16 0.00 0.00
3:53 pm 15:53 Sunny 78 25.6 46 7.8 32 32 undefined N/A 29.83 1010 10 16 0.00 0.00
4:53 pm 16:53 Sunny 80 26.7 45 7.2 29 29 ESE 12 19 29.80 1009 10 16 0.00 0.00
5:53 pm 17:53 Sunny 81 27.2 45 7.2 28 28 ESE 12 19 29.78 1008 10 16 0.00 0.00
6:53 pm 18:53 Sunny 82 27.8 45 7.2 27 27 SE 14 22 29.76 1008 10 16 0.00 0.00
7:53 pm 19:53 Sunny 81 27.2 44 6.7 27 27 SSE 14 22 29.76 1008 10 16 0.00 0.00
8:53 pm 20:53 Clear 79 26.1 54 12.2 42 42 SE 13 20 29.77 1008 10 16 0.00 0.00
9:53 pm 21:53 Clear 76 24.4 54 12.2 47 47 SE 17 28 29.78 1008 10 16 0.00 0.00
10:53 pm 22:53 Clear 76 24.4 66 18.9 72 72 SSE 20 31 29.79 1009 9 14 0.00 0.00
11:53 pm 23:53 Clear 75 23.9 66 18.9 74 74 SSE 21 33 29.78 1008 8 13 0.00 0.00

Powered by AerisWeather